Miscellaneous Local Product
Issued by NWS Hastings, NE

Home | Current Version | Previous Version | Text Only | Print | Product List | Glossary Off
Versions: 1 2 3 4 5 6 7 8 9 10 11 12 13 14 15 16 17 18 19 20 21 22 23 24 25 26 27 28 29 30 31 32 33 34 35 36 37 38 39 40 41 42 43 44 45 46 47 48 49 50

000
AXUS43 KGID 251502
MISGRI

GID CWA HOURLY WEATHER ROUNDUP
NATIONAL WEATHER SERVICE HASTINGS NE
900 AM CST THU DEC 25 2014

NOTE: "FAIR" INDICATES FEW OR NO CLOUDS BELOW 12,000 FEET WITH NO
SIGNIFICANT WEATHER AND/OR OBSTRUCTIONS TO VISIBILITY.

...SOUTH CENTRAL NEBRASKA...

CITY           SKY/WX    TMP DP  RH WIND       PRES   REMARKS
GRAND ISLAND   CLEAR     30  23  75 SE9       29.56R WCI  22
HASTINGS       CLEAR     30  21  69 S10       29.54R WCI  21
KEARNEY        PTCLDY    27  21  80 SE9       29.51S WCI  17
ORD            CLEAR     26  22  84 CALM      29.53R
YORK           MOCLDY    32  25  74 S14       29.58R WCI  22
AURORA         PTCLDY    30  25  81 SE10      29.57R WCI  21
LEXINGTON      PTCLDY    30  24  78 E6        29.48R WCI  24
HOLDREGE       PTCLDY    28  22  76 SE7       29.48S WCI  21
HEBRON         CLEAR     33  24  70 S10       29.59S WCI  25

...NEBRASKA PANHANDLE...

CITY           SKY/WX    TMP DP  RH WIND       PRES   REMARKS
CHADRON        FOG       31  29  92 NE14      29.58R VSB 1   WCI  21
ALLIANCE       CLOUDY    28  25  88 N17       29.51R WCI  16
SCOTTSBLUFF    MIX PCPN  32  26  78 N15G24    29.51R WCI  22
SIDNEY         MOCLDY    36  25  64 NE10      29.45R WCI  28

...WESTERN AND NORTH CENTRAL NEBRASKA...

CITY           SKY/WX    TMP DP  RH WIND       PRES   REMARKS
VALENTINE      CLOUDY    29  23  78 NE13      29.56R WCI  19
AINSWORTH      MOCLDY    29  26  88 N8        29.53R WCI  21
ONEILL         PTCLDY    26  25  96 N3        29.54S
BROKEN BOW     PTCLDY    28  23  81 SE6       29.49R WCI  22
IMPERIAL       MOCLDY    25  20  81 N7        29.42F WCI  17
NORTH PLATTE   MOCLDY    27  22  81 E6        29.46R WCI  20
MCCOOK         PTCLDY    26  21  81 E8        29.42F WCI  18

...EASTERN NEBRASKA...

CITY           SKY/WX    TMP DP  RH WIND       PRES   REMARKS
NORFOLK        PTCLDY    27  22  81 S7        29.58R WCI  19
SO SIOUX CITY  MOCLDY    31  27  85 SE8       29.63R WCI  23
TEKAMAH        MOCLDY    33  29  85 S3        29.66R
COLUMBUS       PTCLDY    32  21  64 SE6       29.61R WCI  26
ALBION         PTCLDY    26  21  82 CALM      29.57R
OMAHA EPPLEY   MOCLDY    33  27  78 S15       29.68R WCI  23
OFFUTT AFB     MOSUNNY   33  28  81 SE10      29.67R WCI  24
MILLARD        PTCLDY    33  27  79 SE6       29.66R WCI  28
LINCOLN        CLOUDY    33  26  75 S8        29.64R WCI  26
NEBRASKA CITY  MOSUNNY   33  26  77 S14G21    29.67R WCI  23
BEATRICE       PTSUNNY   33  26  73 SE10      29.63R WCI  25
FALLS CITY     MOSUNNY   35  27  72 S15       29.69S WCI  25

...NORTHERN KANSAS...

CITY           SKY/WX    TMP DP  RH WIND       PRES   REMARKS
GOODLAND       PTCLDY    28  23  81 W6        29.40S WCI  22
HILL CITY      PTCLDY    31  20  63 SE6       29.47F WCI  25
NORTON         SUNNY     28  18  64 E6        29.44S WCI  22
PHILLIPSBURG   CLEAR     30  25  80 E7        29.51R WCI  23
SMITH CENTER   CLEAR     28  23  80 SE9       29.53S WCI  20
BELOIT         CLEAR     34  25  69 SE10      29.56F WCI  26
HAYS           PTCLDY    32  18  55 S15       29.49F WCI  22
RUSSELL        PTCLDY    33  24  69 S23       29.49F WCI  21
CONCORDIA      FAIR      35  26  69 S12       29.59R WCI  27
SALINA         SUNNY     38  26  62 S17G30    29.60S WCI  28
TOPEKA         SUNNY     38  27  64 S12       29.74F WCI  30



USA.gov is the U.S. government's official web portal to all federal, state and local government web resources and services.